This demonstration page uses our WeatherBlox Daily Observations layout. Learn more.

Left ArrowRight Arrow

34.16533, -84.80231

Hourly Observations for October 9, 2015

Temp ( °F °C ) Dew Point ( °F °C ) Humidity (%) Winds ( mph kmh ) Pressure ( in mb ) Visibility ( mi km ) Precip ( " mm )
12:53 am 00:53 Clear 60 15.6 60 15.6 100 100 Calm 30.09 1019 8 13 0.00 0.00
1:53 am 01:53 Clear 60 15.6 60 15.6 100 100 Calm 30.09 1019 8 13 0.00 0.00
2:53 am 02:53 Clear 59 15 59 15 100 100 Calm 30.08 1019 10 16 0.00 0.00
3:53 am 03:53 Clear 58 14.4 58 14.4 100 100 Calm 30.09 1019 10 16 0.00 0.00
4:53 am 04:53 Clear 61 16.1 60 15.6 97 97 NE 3 6 30.08 1019 10 16 0.00 0.00
5:53 am 05:53 Mostly Clear 61 16.1 60 15.6 97 97 Calm 30.08 1019 10 16 0.00 0.00
6:53 am 06:53 Cloudy 61 16.1 60 15.6 97 97 Calm 30.10 1019 10 16 0.00 0.00
7:53 am 07:53 Partly Cloudy 61 16.1 60 15.6 97 97 Calm 30.11 1020 10 16 0.00 0.00
8:53 am 08:53 Cloudy 63 17.2 62 16.7 97 97 Calm 30.13 1020 10 16 0.00 0.00
9:53 am 09:53 Cloudy 65 18.3 63 17.2 93 93 Calm 30.15 1021 10 16 0.00 0.00
10:53 am 10:53 Cloudy 68 20 64 17.8 87 87 Calm 30.15 1021 10 16 0.00 0.00
11:53 am 11:53 Mostly Cloudy 70 21.1 63 17.2 79 79 Calm 30.14 1021 10 16 0.00 0.00
12:53 pm 12:53 Cloudy 71 21.7 63 17.2 76 76 Calm 30.12 1020 10 16 0.00 0.00
1:53 pm 13:53 Mostly Cloudy 73 22.8 63 17.2 71 71 VRB 3 6 30.09 1019 10 16 0.00 0.00
2:53 pm 14:53 Mostly Cloudy 74 23.3 64 17.8 71 71 Calm 30.06 1018 10 16 0.00 0.00
3:53 pm 15:53 Mostly Cloudy 74 23.3 63 17.2 69 69 Calm 30.04 1017 10 16 0.00 0.00
4:53 pm 16:53 Partly Cloudy 75 23.9 64 17.8 69 69 Calm 30.02 1017 10 16 0.00 0.00
5:53 pm 17:53 Sunny 76 24.4 65 18.3 69 69 S 3 6 30.01 1016 10 16 0.00 0.00
6:53 pm 18:53 Sunny 72 22.2 67 19.4 84 84 Calm 29.99 1016 10 16 0.00 0.00
7:53 pm 19:53 Clear 67 19.4 66 18.9 97 97 Calm 29.99 1016 10 16 0.00 0.00
8:53 pm 20:53 Clear 66 18.9 65 18.3 96 96 Calm 30.00 1016 10 16 0.00 0.00
9:53 pm 21:53 Mostly Cloudy 64 17.8 64 17.8 100 100 SSE 3 6 30.00 1016 10 16 0.00 0.00
10:53 pm 22:53 Mostly Cloudy 65 18.3 64 17.8 97 97 Calm 30.01 1016 10 16 0.00 0.00
11:53 pm 23:53 Cloudy with Rain 66 18.9 64 17.8 93 93 N 7 11 30.03 1017 6 10 0.06 1.52

Powered by AerisWeather